Indianapolis, IN

1:29 AM EST on December 07, 2019 (GMT -0500)
Indianapolis International

Weather History for KIND - July, 2019

Change the Weather History Date:

Tuesday, July 23, 2019

  Actual Average Record
Temperature  
Mean Temperature 70 °F 75 °F  
Max Temperature 81 °F 85 °F 102 °F (1934)
Min Temperature 58 °F 66 °F 46 °F (1947)
Degree Days  
Heating Degree Days 0 0  
Month to date heating degree days 0 0  
Since 1 June heating degree days 9 16  
Since 1 July heating degree days 0 0  
Cooling Degree Days 5 10  
Month to date cooling degree days 335 245  
Year to date cooling degree days 649 555  
Since 1 June cooling degree days 538 471  
Growing Degree Days 19 (Base 50)    
Moisture  
Dew Point 53 °F    
Average Humidity 58    
Maximum Humidity 80    
Minimum Humidity 36    
Precipitation  
Precipitation T in 0.14 in 1.61 in (2014)
Month to date precipitation 3.18 3.53  
Year to date precipitation 32.33 25.18  
Snow  
Snow 0.00 in 0.00 in 0.00 in ()
Month to date snowfall 0.0 0.0  
Since 1 June snowfall 0.0 0.0  
Since 1 July snowfall 0.0 0.0  
Snow Depth 0.00 in    
Sea Level Pressure  
Sea Level Pressure 30.06 in    
Wind  
Wind Speed 10 mph (NNW)    
Max Wind Speed 18 mph    
Max Gust Speed 26 mph    
Visibility 10 miles    
Events      
T = Trace of Precipitation, MM = Missing Value Source: NWS Daily Summary

Daily Weather History Graph

Daily Weather History Graph

Search for Another Location

Airport or City:

Astronomy

Jul. 23, 2019 Rise Set
Actual Time 6:36 AM EDT 9:06 PM EDT
Civil Twilight 6:05 AM EDT 9:37 PM EDT
Nautical Twilight 5:26 AM EDT 10:16 PM EDT
Astronomical Twilight 4:43 AM EDT 10:58 PM EDT
Moon 12:28 AM EDT (7/23) 12:48 PM EDT (7/23)
Length of Visible Light 15h 32m
Length of Day
14h 30m
Waning Gibbous, 63% of the Moon is Illuminated
Jul 23
Waning Gibbous
Jul 24
Last Quarter
Jul 31
New
Aug 7
First Quarter
Aug 15
Full

Hourly Weather History & Observations

Time (EDT) Temp. Heat Index Dew Point Humidity Pressure Visibility Wind Dir Wind Speed Gust Speed Precip Events Conditions
12:54 AM 64.0 °F - 53.1 °F 67% 30.04 in 10.0 mi North 9.2 mph - N/A   Clear
1:54 AM 62.1 °F - 53.1 °F 72% 30.04 in 10.0 mi NNW 6.9 mph - N/A   Clear
2:54 AM 62.1 °F - 53.1 °F 72% 30.04 in 10.0 mi North 12.7 mph - N/A   Clear
3:54 AM 61.0 °F - 53.1 °F 75% 30.04 in 10.0 mi North 8.1 mph - N/A   Clear
4:54 AM 60.1 °F - 53.1 °F 78% 30.05 in 10.0 mi North 8.1 mph - N/A   Clear
5:54 AM 60.1 °F - 53.1 °F 78% 30.05 in 10.0 mi North 6.9 mph - N/A   Partly Cloudy
6:54 AM 59.0 °F - 53.1 °F 81% 30.06 in 10.0 mi NW 6.9 mph - N/A   Partly Cloudy
7:54 AM 61.0 °F - 54.0 °F 78% 30.07 in 10.0 mi North 8.1 mph - N/A   Partly Cloudy
8:54 AM 66.0 °F - 53.1 °F 63% 30.09 in 10.0 mi North 8.1 mph - N/A   Partly Cloudy
9:54 AM 70.0 °F - 53.1 °F 55% 30.09 in 10.0 mi North 10.4 mph - N/A   Partly Cloudy
10:54 AM 73.0 °F - 53.1 °F 49% 30.09 in 10.0 mi NW 9.2 mph - N/A   Partly Cloudy
11:54 AM 75.9 °F - 52.0 °F 43% 30.09 in 10.0 mi NNW 5.8 mph - N/A   Partly Cloudy
12:54 PM 77.0 °F - 51.1 °F 40% 30.09 in 10.0 mi NW 9.2 mph 18.4 mph N/A   Partly Cloudy
1:54 PM 78.1 °F - 53.1 °F 42% 30.08 in 10.0 mi NW 11.5 mph 21.9 mph N/A   Partly Cloudy
2:54 PM 80.1 °F 79.9 °F 53.1 °F 39% 30.06 in 10.0 mi NW 10.4 mph 20.7 mph N/A   Partly Cloudy
3:54 PM 81.0 °F 80.4 °F 53.1 °F 38% 30.05 in 10.0 mi WNW 13.8 mph 21.9 mph N/A   Partly Cloudy
4:54 PM 79.0 °F - 54.0 °F 42% 30.04 in 10.0 mi NNW 12.7 mph - N/A   Scattered Clouds
5:54 PM 80.1 °F - 52.0 °F 38% 30.03 in 10.0 mi NNW 13.8 mph - N/A   Partly Cloudy
6:54 PM 79.0 °F - 52.0 °F 39% 30.03 in 10.0 mi North 13.8 mph - N/A   Partly Cloudy
7:54 PM 78.1 °F - 52.0 °F 40% 30.03 in 10.0 mi North 10.4 mph - N/A   Mostly Cloudy
8:54 PM 75.9 °F - 53.1 °F 45% 30.03 in 10.0 mi North 9.2 mph - N/A   Mostly Cloudy
9:54 PM 73.0 °F - 55.9 °F 55% 30.05 in 10.0 mi NNW 6.9 mph - N/A   Mostly Cloudy
10:54 PM 72.0 °F - 57.0 °F 59% 30.07 in 10.0 mi North 19.6 mph 25.3 mph 0.00 in   Scattered Clouds
11:54 PM 69.1 °F - 52.0 °F 54% 30.08 in 10.0 mi North 11.5 mph - N/A   Partly Cloudy